Meteo Giornale » Osservazioni meteo Italia » Ronchi Dei Legionari

ore: 13:50 - Osservazioni Meteo Ronchi Dei Legionari
Lat. 45° 49' N Lon. 13° 29' E Alt. 12 metri s.l.m.

foschia Europe/Rome

5 °C

Foschia

Temp. 24 Ore

3 °C

9 °C

Nord

3.7 Km/h

Dew point 4 °C

Umidità 93 %

Visibilità  4 Km

Il sole sorge alle ore 07:40

Il sole tramonta alle ore 16:51

Data e Ora Cielo e Fenomeni T °C DP °C Um. % Pres. hPa Vis. km Vento km/h
Oggi h: 13:50 foschia Foschia 5 4 93 1008 4 N 3.7
Oggi h: 13:20 foschia Foschia 5 4 93 1008 4 N 5.5
Oggi h: 12:50 foschia Foschia 5 4 93 1009 4 N 3.7
Oggi h: 12:20 foschia Foschia 5 4 93 1009 5 N 3.7
Oggi h: 11:50 coperto_pioggia Pioggia Debole Foschia 5 4 93 1009 4 N 3.7
Oggi h: 11:20 coperto Coperto 4 3 93 1010 6 N 5.5
Oggi h: 10:50 foschia Foschia 4 3 93 1011 5 N 5.5
Oggi h: 10:20 foschia Foschia 4 3 93 1011 5 N 5.5
Oggi h: 09:50 foschia Foschia 4 3 93 1011 5 N 3.7
Oggi h: 09:20 foschia Foschia 4 3 93 1011 5 N 3.7
Oggi h: 08:50 foschia Foschia 4 3 93 1011 4 N 5.5
Oggi h: 08:20 coperto Coperto 4 3 93 1011 7 N 5.5
Oggi h: 07:50 coperto Coperto 4 3 93 1011 7 N 3.7
Oggi h: 07:20 coperto_pioggia Pioggia Debole 4 3 93 1011 7 N 3.7
Oggi h: 06:50 coperto Coperto 4 3 93 1011 10 N 1.8
Oggi h: 06:20 coperto Coperto 3 3 100 1012 7 N 1.8
Oggi h: 05:50 coperto Coperto 3 3 100 1012 8 N 3.7
Oggi h: 05:20 coperto Coperto 3 3 100 1012 10 N 1.8
Oggi h: 04:50 coperto Coperto 3 2 93 1013 10 N 3.7
Oggi h: 04:20 coperto Coperto 3 2 93 1013 10 N/NE 7.4
Oggi h: 03:50 coperto Coperto 3 2 93 1014 10 N/NE 7.4
Oggi h: 03:20 coperto_pioggia Pioggia Debole 3 2 93 1014 9 N/NE 9.3
Oggi h: 02:50 coperto_pioggia Pioggia Debole 3 2 93 1015 10 N 11.1
Oggi h: 02:20 coperto_pioggia Pioggia Debole 3 2 93 1016 9 N 7.4
Oggi h: 01:50 coperto_pioggia Pioggia Debole 4 3 93 1016 8 N 3.7
Oggi h: 01:20 coperto_pioggia Pioggia Debole 4 2 86 1016 10 N 5.5
Oggi h: 00:50 coperto Coperto 4 1 80 1017 10 N 3.7
Oggi h: 00:20 coperto Coperto 4 1 80 1018 10 N 3.7
Ieri h: 23:50 molto_nuvoloso Molto Nuvoloso 4 1 80 1018 10 N 5.5
Ieri h: 23:20 molto_nuvoloso Molto Nuvoloso 4 1 80 1019 10 N 3.7
Ieri h: 22:50 molto_nuvoloso Molto Nuvoloso 4 1 80 1019 10 N 1.8
Ieri h: 22:20 molto_nuvoloso Molto Nuvoloso 4 0 75 1019 10 N 3.7
Ieri h: 21:50 molto_nuvoloso Molto Nuvoloso 4 0 75 1019 10 N 1.8
Ieri h: 21:20 molto_nuvoloso Molto Nuvoloso 4 1 80 1019 10 N 3.7
Ieri h: 20:50 molto_nuvoloso Molto Nuvoloso 4 0 75 1019 10 N 3.7
Ieri h: 20:20 molto_nuvoloso Molto Nuvoloso 5 0 70 1019 10 N 5.5
Ieri h: 19:50 molto_nuvoloso Molto Nuvoloso 5 1 75 1020 10 N 5.5
Ieri h: 19:20 molto_nuvoloso Molto Nuvoloso 5 0 70 1020 10 N 5.5
Ieri h: 18:50 molto_nuvoloso Molto Nuvoloso 5 0 70 1020 10 N 5.5
Ieri h: 18:20 molto_nuvoloso Molto Nuvoloso 6 0 65 1021 10 N 5.5
Ieri h: 17:50 molto_nuvoloso Molto Nuvoloso 6 -0 65 1021 10 O/NO 7.4
Ieri h: 17:20 nuvoloso Nuvoloso 6 -1 60 1021 10 N 5.5
Ieri h: 16:50 sereno Sereno 7 -1 56 1021 10 O 7.4
Ieri h: 16:20 sereno Sereno 8 -1 52 1021 10 N 3.7
Ieri h: 15:50 sereno Sereno 8 -2 49 1021 10 N 3.7
Ieri h: 15:20 sereno Sereno 9 -1 49 1021 10 N 1.8
Ieri h: 14:50 sereno Sereno 9 -1 49 1021 10 N 3.7
Ieri h: 14:20 sereno Sereno 9 -2 45 1021 10 N 5.5
Ieri h: 13:50 sereno Sereno 9 -2 45 1022 10 N 9.3